Simultaneous Nadir Overpasses (SNOs) Predictions

Prediction of SNOs between GOES-16 and NOAA-19 Satellite Orbit:

Table of predicted SNOs for the next 14.0 days since TLE Epoch: 6/29/2024
Index Date Time (GOES-16) GOES-16 Lat,Lon NOAA-19 Lat,Lon Distance(km) Time Diff (sec)
1 06/29/2024 14:06:02 0.04, -75.20 -0.74, -71.92 374.83 80
2 07/01/2024 02:35:05 -0.03, -75.21 -1.03, -79.54 494.29 80
3 07/02/2024 02:22:48 -0.03, -75.21 -0.31, -76.55 152.40 80
4 07/03/2024 02:13:09 -0.03, -75.22 0.34, -73.56 189.62 80
5 07/05/2024 14:29:56 0.03, -75.24 0.70, -78.19 336.24 80
6 07/06/2024 14:20:17 0.03, -75.25 0.02, -75.20 6.42 80
7 07/07/2024 14:07:59 0.03, -75.27 -0.66, -72.20 349.21 80
8 07/10/2024 02:27:25 -0.02, -75.31 -0.40, -76.83 174.86 80
9 07/11/2024 02:12:27 -0.02, -75.33 0.34, -73.85 168.74 80
